Location: Napier
(39.4830°S, 176.9170°E)
Time: 05:23:53
(UTC+13:00)

COSMOS 2428 - Pass Details

Date: 24 January 2019
Orbit: 845 x 856 km, 70.9° (Epoch: 17 October)

Event Time Altitude Azimuth Distance (km) Brightness Sun altitude
Exits shadow 23:00:05 44° 66° (ENE) 1,168 3.0 -22.3°
Maximum altitude 23:00:22 45° 74° (ENE) 1,164 3.0 -22.3°
Drops below altitude 10° 23:05:49 10° 144° (SE) 2,515 5.4 -23.0°
Sets 23:08:23 0° 150° (SSE) 3,460 6.2 -23.3°
